FW8607 Weather Reports


time (UTC)temp
C
wind
direction
speed
KPH
gust
KPH
rain 1hr
cm
rain 24hr
cm
rain mn
cm
humidity
%
barometer
mb
20260506160113 14 338 8.0 17.7 0.00 0.00 0.00 76 1017.5
20260506153114 14 315 4.8 14.5 0.00 0.00 0.00 77 1017.6
20260506150113 13 68 1.6 6.4 0.00 0.00 0.00 85 1017.6
20260506143113 11 68 4.8 6.4 0.00 0.13 0.00 89 1017.5
20260506140133 10 158 4.8 8.0 0.00 0.13 0.00 90 1017.3
20260506133114 10 158 1.6 4.8 0.00 0.13 0.00 90 1017.1
20260506130114 10 158 1.6 8.0 0.00 0.13 0.00 89 1016.8
20260506123113 10 135 3.2 9.7 0.00 0.41 0.00 89 1016.5
20260506120113 10 135 3.2 11.3 0.00 0.41 0.00 89 1016.3
20260506113114 10 135 4.8 9.7 0.00 0.41 0.00 89 1016.5
20260506110114 10 135 4.8 8.0 0.00 0.41 0.00 89 1016.3
20260506103112 10 113 3.2 6.4 0.00 0.51 0.00 88 1016.3
20260506100132 10 293 1.6 6.4 0.00 0.51 0.00 87 1016.1
20260506093113 11 293 3.2 6.4 0.00 0.56 0.00 87 1016.1
20260506090112 11 293 3.2 6.4 0.00 0.56 0.00 87 1016.4
20260506083112 11 0.0 4.8 0.00 0.79 0.00 85 1016.8
20260506080112 11 0.0 0.0 0.00 0.79 0.00 84 1017.0
20260506073112 11 0.0 3.2 0.00 0.79 0.00 84 1017.2
20260506070113 11 293 1.6 4.8 0.00 0.79 0.00 84 1017.1
20260506060112 12 0.0 0.0 0.00 0.79 0.00 82 1016.8
20260506050112 12 0.0 0.0 0.00 0.79 0.00 81 1016.6
20260506043112 12 248 1.6 4.8 0.00 0.79 0.00 81 1016.2
20260506040112 12 248 4.8 11.3 0.00 0.79 0.00 81 1015.8
20260506033112 13 248 8.0 14.5 0.00 0.79 0.00 78 1015.2
20260506030130 13 248 9.7 16.1 0.00 0.79 0.00 74 1014.8
20260506023110 14 248 11.3 19.3 0.00 0.79 0.00 70 1014.4
20260506020112 15 248 14.5 24.1 0.00 0.79 0.00 70 1014.2
20260506013112 15 248 17.7 29.0 0.00 0.79 0.00 71 1013.9
20260506010112 15 248 17.7 30.6 0.00 0.79 0.00 65 1013.8
20260506003111 16 248 19.3 32.2 0.00 0.79 0.00 66 1013.7
20260506000132 16 270 19.3 29.0 0.00 0.79 0.79 66 1013.6
20260505233111 16 248 20.9 37.0 0.00 0.79 0.79 67 1013.6
20260505230111 16 248 20.9 35.4 0.00 0.79 0.79 66 1013.7
20260505223112 16 270 20.9 38.6 0.00 0.79 0.79 65 1014.0
20260505220112 16 248 19.3 35.4 0.00 0.79 0.79 65 1014.0
20260505210111 16 270 16.1 27.4 0.00 0.79 0.79 65 1014.5
20260505203111 16 248 17.7 32.2 0.00 0.79 0.79 68 1014.8
20260505200110 15 248 17.7 30.6 0.00 0.79 0.79 68 1014.9
20260505193111 15 248 16.1 27.4 0.00 0.79 0.79 70 1015.1
20260505190111 15 270 12.9 29.0 0.00 0.79 0.79 73 1015.2
20260505183111 14 270 14.5 27.4 0.00 0.79 0.79 79 1015.2
20260505180111 13 248 14.5 29.0 0.00 0.79 0.79 82 1015.0
20260505173110 13 270 11.3 24.1 0.00 0.79 0.79 83 1014.4
20260505170111 13 293 3.2 11.3 0.00 0.79 0.79 93 1014.4
20260505163110 12 0.0 4.8 0.00 0.79 0.79 95 1014.4